Clayton Lake, ME

9:44 PM EST on February 27, 2017 (GMT -0500)
Clayton Lake

Weather History for K40B - April, 2013

Change the Weather History Date:

Saturday, April 20, 2013

  Actual Average Record
Temperature  
Mean Temperature 46 °F -  
Max Temperature 51 °F 46 °F 60 °F (2003)
Min Temperature 33 °F 26 °F 22 °F (2015)
Degree Days  
Heating Degree Days 20    
Moisture  
Dew Point 32 °F    
Average Humidity 72    
Maximum Humidity 89    
Minimum Humidity 50    
Precipitation  
Precipitation 0.35 in - - ()
Sea Level Pressure  
Sea Level Pressure 29.70 in    
Wind  
Wind Speed 8 mph (SSW)    
Max Wind Speed 16 mph    
Max Gust Speed 30 mph    
Averages and records for this station are not official NWS values.
T = Trace of Precipitation, MM = Missing Value Source: NWS Daily Summary

Daily Weather History Graph

Daily Weather History Graph

Search for Another Location

Airport or City:

Trip Planner

Search our weather history database for the weather conditions in past years. The results will help you decide how hot, cold, wet, or windy it might be!

Date:

Astronomy

Apr. 20, 2013 Rise Set
Actual Time 5:41 AM EDT 7:33 PM EDT
Civil Twilight 5:09 AM EDT 8:05 PM EDT
Nautical Twilight 4:29 AM EDT 8:45 PM EDT
Astronomical Twilight 3:46 AM EDT 9:28 PM EDT
Moon 1:55 PM EDT (4/20) 2:49 AM EDT (4/20)
Length of Visible Light 14h 56m
Length of Day
13h 51m
Waxing Gibbous, 71% of the Moon is Illuminated
Apr 20
Waxing Gibbous
Apr 25
Full
May 2
Last Quarter
May 9
New
May 18
First Quarter

Hourly Weather History & Observations

Time (EDT) Temp. Windchill Dew Point Humidity Pressure Visibility Wind Dir Wind Speed Gust Speed Precip Events Conditions
12:25 AM 57.4 °F - 54.0 °F 88% 29.44 in - South 15.0 mph 23.0 mph N/A   Unknown
1:25 AM 51.4 °F - - N/A% 29.50 in - Variable 4.6 mph 20.7 mph 0.08 in   Unknown
2:25 AM 47.1 °F - - N/A% 29.49 in - Variable 6.9 mph - 0.07 in   Unknown
3:25 AM 45.1 °F 41.4 °F - N/A% 29.51 in - Variable 6.9 mph 15.0 mph 0.03 in   Unknown
4:25 AM 43.3 °F 39.2 °F - N/A% 29.56 in - SSW 6.9 mph 16.1 mph 0.03 in   Unknown
5:25 AM 41.9 °F 39.0 °F - N/A% 29.57 in - Variable 4.6 mph - 0.01 in   Unknown
6:25 AM 40.3 °F 36.3 °F - N/A% 29.58 in - Variable 5.8 mph 11.5 mph 0.04 in   Unknown
7:25 AM 39.2 °F 35.9 °F - N/A% 29.60 in - Variable 4.6 mph 13.8 mph 0.04 in   Unknown
8:25 AM 38.7 °F 36.3 °F - N/A% 29.60 in - Variable 3.5 mph 12.7 mph 0.02 in   Unknown
9:25 AM 39.9 °F 35.8 °F 36.9 °F 89% 29.60 in - Variable 5.8 mph 13.8 mph N/A   Unknown
10:25 AM 41.4 °F 36.8 °F 36.1 °F 82% 29.62 in - Variable 6.9 mph 16.1 mph N/A   Unknown
11:25 AM 40.5 °F 34.6 °F 33.8 °F 77% 29.65 in - SSW 9.2 mph 20.7 mph N/A   Unknown
12:25 PM 41.9 °F 35.9 °F 30.4 °F 64% 29.66 in - WSW 10.4 mph 23.0 mph N/A   Unknown
1:25 PM 43.2 °F 37.0 °F 29.8 °F 59% 29.68 in - SSW 11.5 mph 23.0 mph N/A   Unknown
2:25 PM 43.3 °F 37.2 °F 29.5 °F 58% 29.70 in - SSW 11.5 mph 23.0 mph N/A   Unknown
3:25 PM 44.1 °F 36.8 °F 26.6 °F 50% 29.71 in - SSW 16.1 mph 29.9 mph N/A   Unknown
4:25 PM 43.3 °F 37.7 °F 25.7 °F 50% 29.75 in - SSW 10.4 mph 23.0 mph N/A   Unknown
5:25 PM 39.6 °F 35.4 °F 29.5 °F 67% 29.81 in - Variable 5.8 mph 24.2 mph N/A   Unknown
6:25 PM 35.2 °F 29.5 °F 31.8 °F 87% 29.85 in - Variable 6.9 mph 23.0 mph N/A   Unknown
7:25 PM 34.9 °F 28.3 °F 30.7 °F 85% 29.90 in - SW 8.1 mph 20.7 mph 0.03 in   Unknown
8:25 PM 35.2 °F 30.3 °F 28.4 °F 76% 29.95 in - Variable 5.8 mph 19.6 mph N/A   Unknown
9:25 PM 35.1 °F 29.3 °F 27.7 °F 74% 29.99 in - Variable 6.9 mph 17.3 mph N/A   Unknown
10:25 PM 34.7 °F 28.8 °F 26.4 °F 72% 30.02 in - SW 6.9 mph 16.1 mph 0.00 in   Unknown
11:25 PM 33.3 °F 30.2 °F 27.3 °F 79% 30.06 in - Variable 3.5 mph - N/A   Unknown